Location: Oroua River
(40.4333°S, 175.4333°E)
Time: 14:34:26
(UTC+00:00)

Resurs 1-4 Rocket - Pass Details

Date: 03 February 2023
Orbit: 800 x 813 km, 98.7° (Epoch: 22 March)

Event Time Altitude Azimuth Distance (km) Brightness Sun altitude
Exits shadow 12:46:56 47° 154° (SSE) 1,087 3.0 -33.0°
Drops below altitude 10° 12:51:02 10° 185° (S) 2,436 5.4 -32.9°
Sets 12:53:26 0° 189° (S) 3,375 6.3 -32.8°
